Poughkeepsie, NY

9:21 PM EDT on March 23, 2017 (GMT -0400)
Dutchess County

Weather History for KPOU - December, 2010

Change the Weather History Date:

Monday, December 6, 2010

  Actual Average Record
Temperature  
Mean Temperature 31 °F 34 °F  
Max Temperature 33 °F 44 °F 72 °F (2001)
Min Temperature 28 °F 25 °F 6 °F (1976)
Degree Days  
Heating Degree Days 34 30  
Month to date heating degree days 182 177  
Since 1 July heating degree days 1328 1455  
Cooling Degree Days 0 0  
Month to date cooling degree days 0 0  
Year to date cooling degree days 911 672  
Moisture  
Dew Point 15 °F    
Average Humidity 53    
Maximum Humidity 63    
Minimum Humidity 43    
Precipitation  
Precipitation T in 0.12 in 1.03 in (1972)
Month to date precipitation 1.34 0.74  
Year to date precipitation 37.53 43.74  
Sea Level Pressure  
Sea Level Pressure 29.46 in    
Wind  
Wind Speed 14 mph (West)    
Max Wind Speed 22 mph    
Max Gust Speed 30 mph    
Visibility 10 miles    
Events Snow    
T = Trace of Precipitation, MM = Missing Value Source: NWS Daily Summary

Daily Weather History Graph

Daily Weather History Graph

Search for Another Location

Airport or City:

Trip Planner

Search our weather history database for the weather conditions in past years. The results will help you decide how hot, cold, wet, or windy it might be!

Date:

Astronomy

Dec. 06, 2010 Rise Set
Actual Time 7:07 AM EST 4:25 PM EST
Civil Twilight 6:36 AM EST 4:56 PM EST
Nautical Twilight 6:01 AM EST 5:31 PM EST
Astronomical Twilight 5:28 AM EST 6:04 PM EST
Moon 8:04 AM EST (12/6) 5:17 PM EST (12/6)
Length of Visible Light 10h 19m
Length of Day
9h 17m
New Moon, 1% of the Moon is Illuminated
Dec 6
New Moon
Dec 13
First Quarter
Dec 21
Full
Dec 27
Last Quarter
Jan 4
New

Hourly Weather History & Observations

Time (EST) Temp. Windchill Dew Point Humidity Pressure Visibility Wind Dir Wind Speed Gust Speed Precip Events Conditions
12:53 AM 32.0 °F 23.6 °F 19.9 °F 61% 29.57 in 10.0 mi West 10.4 mph - 0.00 in   Overcast
1:53 AM 30.9 °F 21.7 °F 19.0 °F 61% 29.56 in 10.0 mi West 11.5 mph - N/A   Overcast
3:53 AM 30.0 °F 20.0 °F 19.0 °F 64% 29.53 in 10.0 mi West 12.7 mph 21.9 mph N/A   Overcast
4:53 AM 30.0 °F 21.1 °F 19.0 °F 64% 29.51 in 10.0 mi West 10.4 mph - N/A   Overcast
5:53 AM 30.0 °F 19.1 °F 16.0 °F 56% 29.51 in 10.0 mi West 15.0 mph 20.7 mph N/A   Overcast
6:46 AM 30.2 °F 21.3 °F 15.8 °F 55% 29.52 in 8.0 mi WNW 10.4 mph - 0.00 in Snow Light Snow
6:53 AM 30.0 °F 21.7 °F 16.0 °F 56% 29.52 in 9.0 mi WNW 9.2 mph 18.4 mph 0.00 in   Overcast
7:22 AM 30.2 °F 23.4 °F 15.8 °F 55% 29.52 in 10.0 mi West 6.9 mph - N/A   Overcast
7:50 AM 30.2 °F 21.9 °F 15.8 °F 55% 29.51 in 8.0 mi WNW 9.2 mph - 0.00 in Snow Light Snow
7:53 AM 30.0 °F 23.2 °F 16.0 °F 56% 29.51 in 9.0 mi WNW 6.9 mph - 0.00 in   Overcast
8:33 AM 30.2 °F 21.9 °F 15.8 °F 55% 29.51 in 9.0 mi West 9.2 mph - N/A   Overcast
8:53 AM 30.0 °F 19.5 °F 16.0 °F 56% 29.50 in 10.0 mi West 13.8 mph - 0.00 in   Overcast
9:05 AM 30.2 °F 18.9 °F 15.8 °F 55% 29.50 in 10.0 mi West 16.1 mph 23.0 mph N/A   Overcast
9:53 AM 30.9 °F 19.8 °F 15.1 °F 52% 29.48 in 10.0 mi West 16.1 mph - N/A   Overcast
10:53 AM 32.0 °F 21.2 °F 14.0 °F 48% 29.45 in 10.0 mi WNW 16.1 mph 23.0 mph N/A   Overcast
11:53 AM 32.0 °F 20.5 °F 14.0 °F 48% 29.42 in 10.0 mi WNW 18.4 mph 27.6 mph N/A   Overcast
12:53 PM 33.1 °F 23.9 °F 14.0 °F 46% 29.40 in 10.0 mi WNW 12.7 mph 24.2 mph N/A   Overcast
1:53 PM 33.1 °F 22.2 °F 14.0 °F 46% 29.39 in 10.0 mi West 17.3 mph 26.5 mph N/A   Overcast
2:53 PM 32.0 °F 19.5 °F 12.9 °F 45% 29.39 in 10.0 mi WNW 21.9 mph 28.8 mph N/A   Overcast
3:53 PM 30.9 °F 20.7 °F 12.9 °F 47% 29.41 in 10.0 mi West 13.8 mph 20.7 mph N/A   Overcast
4:53 PM 30.0 °F 19.5 °F 12.0 °F 47% 29.41 in 10.0 mi West 13.8 mph - N/A   Overcast
5:53 PM 30.0 °F 17.9 °F 12.9 °F 49% 29.42 in 10.0 mi West 18.4 mph 25.3 mph N/A   Overcast
6:53 PM 30.0 °F 18.3 °F 12.0 °F 47% 29.42 in 10.0 mi West 17.3 mph 26.5 mph N/A   Overcast
7:53 PM 30.0 °F 20.0 °F 12.9 °F 49% 29.42 in 10.0 mi West 12.7 mph 21.9 mph N/A   Overcast
8:53 PM 28.9 °F 18.2 °F 15.1 °F 56% 29.41 in 10.0 mi West 13.8 mph 19.6 mph N/A   Overcast
9:53 PM 28.9 °F 18.6 °F 15.1 °F 56% 29.41 in 10.0 mi West 12.7 mph 19.6 mph N/A   Overcast
10:53 PM 28.9 °F 19.2 °F 15.1 °F 56% 29.41 in 10.0 mi West 11.5 mph 23.0 mph N/A   Overcast
11:53 PM 28.9 °F 17.7 °F 15.1 °F 56% 29.40 in 10.0 mi West 15.0 mph 23.0 mph N/A   Overcast